Regional Weather Roundup
Issued by NWS Goodland, KS

Home | Current Version | Previous Version | Text Only | Print | Product List | Glossary Off
Versions: 1 2 3 4 5 6 7 8 9 10 11 12 13 14 15 16 17 18 19 20 21 22 23 24 25 26 27 28 29 30 31 32 33 34 35 36 37 38 39 40 41 42 43 44 45 46 47 48 49 50

000
ASUS43 KGLD 260408
RWRGLD

GOODLAND FORECAST AREA HOURLY WEATHER ROUNDUP
NATIONAL WEATHER SERVICE GOODLAND KS
1000 PM MDT FRI JUL 25 2014

...OFFICIAL OBSERVATIONS...

CITY           SKY/WX    TMP DP  RH WIND       PRES   REMARKS
GOODLAND KS    LGT RAIN  78  68  71 SE10      29.97R
HILL CITY KS   PTCLDY    82  69  64 NE8       29.85R
IMPERIAL NEB   CLOUDY    78  67  68 CALM      29.95R
MCCOOK NEB     MOCLDY    78  68  71 CALM      29.89R
AKRON CO       MOCLDY    75  49  39 NW3       30.07R
BURLINGTON CO  CLOUDY    74  61  63 VRB5      30.04R
LIMON CO       CLOUDY    72  53  51 W6        30.15R
$$

...UNOFFICIAL OBSERVATIONS...

CITY           SKY/WX    TMP DP  RH WIND       PRES   REMARKS
COLBY KS       CLEAR     79  70  73 NE6       29.94R
GOVE KS          N/A     83  32  16 MISG        N/A
LENORA KS        N/A     79  32  18 MISG        N/A
NORTON KS      CLEAR     75  64  69 CALM      29.86S
OBERLIN KS     FAIR      77  66  69 NE7       29.88S
SHARON SPRINGS   N/A     82  66  58 N9          N/A
ST FRANCIS KS  CLOUDY    79  63  57 NW5       29.97R
TRIBUNE KS     CLOUDY    75 N/A N/A W48G56    30.04R
WAKEENEY KS      N/A     82  65  55 MISG        N/A
TRENTON NEB      N/A     75  32  20 CALM        N/A
KIT CARSON CO    N/A     73  62  68 CALM        N/A
WRAY CO          N/A     79  61  53 E5        29.98R
YUMA CO          N/A     78  60  54 CALM        N/A
$$


USA.gov is the U.S. government's official web portal to all federal, state and local government web resources and services.